Overview Statistics Trail Chart Weather Telemetry Raw packets
 

This is the latest recevied weather packets stored in our database for station/object N8BAP. If no packets are shown the sender has not sent any weather packets the latest 10 day(s).

<< 13 14 15 16 17 18 19 >>
Time Temp. Humidity Pressure Rain* Wind** Luminosity Snow
1788530643 29.44° C 72% 1021.9 hPa 0 mm - 362 W/m² -
1788530311 29.44° C 72% 1021.9 hPa 0 mm - 378 W/m² -
1788530006 29.44° C 71% 1021.8 hPa 0 mm - 366 W/m² -
1788529702 29.44° C 74% 1022.2 hPa 0 mm - 380 W/m² -
1788529402 29.44° C 73% 1022.2 hPa 0 mm - 387 W/m² -
1788529096 28.89° C 75% 1022.2 hPa 0 mm - 356 W/m² -
1788528792 28.89° C 74% 1022.2 hPa 0 mm - 286 W/m² -
1788528492 28.89° C 73% 1021.9 hPa 0 mm - 271 W/m² -
1788528187 28.33° C 75% 1022.4 hPa 0 mm - 241 W/m² -
1788527886 28.33° C 76% 1022.2 hPa 0 mm - 240 W/m² -
1788527582 28.33° C 75% 1022.2 hPa 0 mm - 222 W/m² -
1788527276 28.33° C 76% 1022.2 hPa 0 mm - 216 W/m² -
1788526976 28.33° C 75% 1022.3 hPa 0 mm - 182 W/m² -
1788526672 27.78° C 78% 1022.2 hPa 0 mm - 182 W/m² -
1788526367 27.78° C 79% 1022.3 hPa 0 mm - 152 W/m² -
1788526061 27.22° C 80% 1022.3 hPa 0 mm - 140 W/m² -
1788525758 27.22° C 80% 1022.1 hPa 0 mm - 118 W/m² -
1788525458 26.67° C 81% 1022.2 hPa 0 mm - 69 W/m² -
1788525153 26.67° C 82% 1022.4 hPa 0 mm - 64 W/m² -
1788524848 26.11° C 83% 1022.1 hPa 0 mm - 60 W/m² -
1788524542 25.56° C 84% 1022.4 hPa 0 mm - 58 W/m² -
1788524238 25.56° C 85% 1022.3 hPa 0 mm - 62 W/m² -
1788523933 25° C 86% 1022.3 hPa 0 mm - 59 W/m² -
1788523630 25° C 87% 1021.8 hPa 0 mm - 52 W/m² -
1788523325 24.44° C 87% 1021.9 hPa 0 mm - 46 W/m² -

* Rain latest hour (hover to see other rain measurements)
** Current wind speed in m/s (hover to see current wind gust speed)